FW4264 Weather Reports


time (UTC)temp
C
wind
direction
speed
KPH
gust
KPH
rain 1hr
cm
rain 24hr
cm
rain mn
cm
humidity
%
barometer
mb
20260505181529 20 300 6.4 16.1 0.00 0.00 0.00 56 1014.4
20260505180032 20 308 8.0 20.9 0.00 0.00 0.00 57 1014.4
20260505174530 19 303 6.4 17.7 0.00 0.00 0.00 59 1014.4
20260505173029 18 305 6.4 16.1 0.00 0.00 0.00 61 1014.4
20260505171532 18 303 6.4 16.1 0.00 0.00 0.00 62 1014.4
20260505170029 18 310 4.8 11.3 0.00 0.00 0.00 63 1014.4
20260505164531 17 304 4.8 11.3 0.00 0.00 0.00 64 1014.4
20260505163029 17 310 4.8 16.1 0.00 0.00 0.00 64 1014.4
20260505161532 17 308 4.8 11.3 0.00 0.00 0.00 65 1014.4
20260505160108 17 301 4.8 12.9 0.00 0.00 0.00 65 1014.4
20260505151603 16 20 0.0 3.2 0.00 0.00 0.00 70 1014.0
20260505124531 15 79 0.0 4.8 0.00 0.00 0.00 69 1012.5
20260505121530 16 6 0.0 6.4 0.00 0.00 0.00 66 1012.3
20260505120145 16 69 0.0 6.4 0.00 0.00 0.00 65 1012.2
20260505114528 16 294 0.0 11.3 0.00 0.00 0.00 64 1012.2
20260505113034 16 152 0.0 4.8 0.00 0.00 0.00 65 1012.1
20260505101531 17 316 1.6 8.0 0.00 0.00 0.00 63 1011.4
20260505100035 17 57 0.0 4.8 0.00 0.00 0.00 63 1011.4
20260505094530 17 72 0.0 4.8 0.00 0.00 0.00 62 1011.3
20260505093032 18 333 1.6 12.9 0.00 0.00 0.00 62 1011.3
20260505091530 18 70 0.0 8.0 0.00 0.00 0.00 61 1011.2
20260505090037 -17 0 0.0 0.0 0.00 0.00 0.00 100
20260505084532 18 69 0.0 3.2 0.00 0.00 0.00 62 1011.0
20260505080032 19 6 0.0 11.3 0.00 0.00 0.00 59 1010.9
20260505074530 19 35 0.0 8.0 0.00 0.00 0.00 59 1010.8
20260505073032 20 243 0.0 9.7 0.00 0.00 0.00 58 1010.7
20260505071531 19 302 1.6 9.7 0.00 0.00 0.00 58 1010.6
20260505070146 20 11 1.6 9.7 0.00 0.00 0.00 57 1010.5
20260505064529 20 44 0.0 8.0 0.00 0.00 0.00 56 1010.5
20260505063107 20 11 0.0 9.7 0.00 0.00 0.00 56 1010.3
20260505061530 20 358 0.0 9.7 0.00 0.00 0.00 54 1010.2
20260505060030 20 94 0.0 6.4 0.00 0.00 0.00 52 1010.2
20260505054645 20 213 1.6 11.3 0.00 0.00 0.00 52 1010.1
20260505053040 21 226 0.0 11.3 0.00 0.00 0.00 51 1009.9
20260505051535 21 193 1.6 9.7 0.00 0.00 0.00 50 1009.8
20260505041530 22 105 1.6 6.4 0.00 0.00 0.00 45 1009.4
20260505040044 22 156 0.0 8.0 0.00 0.00 0.00 44 1009.2
20260505034528 22 66 0.0 9.7 0.00 0.00 0.00 45 1008.9
20260505033107 22 210 0.0 11.3 0.00 0.00 0.00 45 1008.7
20260505031531 22 222 0.0 8.0 0.00 0.00 0.00 44 1008.7
20260505030032 23 164 0.0 11.3 0.00 0.00 0.00 43 1008.5
20260505024605 23 214 1.6 9.7 0.00 0.00 0.00 42 1008.3
20260505023031 24 171 0.0 6.4 0.00 0.00 0.00 41 1008.2
20260505021530 25 172 0.0 4.8 0.00 0.00 0.00 39 1008.2
20260505020033 25 213 1.6 8.0 0.00 0.00 0.00 38 1008.2
20260505013031 26 267 1.6 16.1 0.00 0.00 0.00 36 1008.1
20260505011531 27 301 3.2 12.9 0.00 0.00 0.00 35 1008.1
20260505004529 27 297 3.2 14.5 0.00 0.00 0.00 36 1008.0
20260505003031 27 291 4.8 14.5 0.00 0.00 0.00 36 1008.0
20260505000034 27 302 6.4 16.1 0.00 0.00 0.00 36 1008.1
20260504234531 28 301 8.0 20.9 0.00 0.00 0.00 36 1008.1
20260504233031 28 295 4.8 16.1 0.00 0.00 0.00 37 1008.1
20260504231531 28 293 6.4 17.7 0.00 0.00 0.00 36 1008.3
20260504230030 28 291 6.4 16.1 0.00 0.00 0.00 36 1008.5
20260504224608 28 303 6.4 17.7 0.00 0.00 0.00 35 1008.6
20260504223031 28 310 6.4 16.1 0.00 0.00 0.00 35 1008.7
20260504220030 28 291 4.8 12.9 0.00 0.00 0.00 36 1009.0
20260504214531 28 304 6.4 14.5 0.00 0.00 0.00 35 1009.1
20260504211531 28 302 4.8 16.1 0.00 0.00 0.00 34 1009.5
20260504210031 28 303 4.8 12.9 0.00 0.00 0.00 34 1009.6
20260504204530 28 300 4.8 12.9 0.00 0.00 0.00 35 1009.7
20260504203031 28 305 4.8 11.3 0.00 0.00 0.00 36 1009.9
20260504201529 27 300 4.8 9.7 0.00 0.00 0.00 36 1010.1
20260504194531 27 306 6.4 14.5 0.00 0.00 0.00 37 1010.2
20260504193031 26 306 6.4 17.7 0.00 0.00 0.00 37 1010.3
20260504191531 26 310 6.4 17.7 0.00 0.00 0.00 37 1010.4
20260504190106 26 310 6.4 16.1 0.00 0.00 0.00 38 1010.4
20260504184531 25 305 4.8 12.9 0.00 0.00 0.00 39 1010.5
20260504183030 25 312 4.8 14.5 0.00 0.00 0.00 41 1010.5